GFSFLT2_con_mucape_000.txt.gz
CAPE
0 0 0 0 0 0 0 0 0 0 0 0 0 0 6 32 101 141 159 369 541 641 738 928 841 886 805 1049 1132 1289 1557 1765
0 0 0 0 0 0 0 0 0 0 0 0 0 0 0 1 32 96 125 339 440 576 718 962 949 914 887 1086 1252 1328 1499 1659
0 0 0 0 0 0 0 0 0 0 0 0 0 0 0 0 8 30 76 188 407 631 781 953 974 914 998 1173 1370 1453 1437 1530
0 0 0 0 0 0 0 0 0 0 0 0 0 0 0 0 2 11 41 119 260 579 808 910 912 909 1010 1223 1394 1507 1478 1546
0 0 0 0 0 0 0 0 0 0 0 0 0 0 0 11 10 7 32 74 168 369 746 923 935 984 1074 1266 1345 1441 1458 1437
0 0 0 0 0 0 0 0 0 0 0 0 0 0 0 7 17 17 35 52 146 249 431 641 776 838 1097 1291 1309 1302 1324 1381
0 0 0 0 0 0 0 0 0 0 0 0 0 0 0 0 28 32 31 83 99 211 297 399 510 610 718 999 1207 1272 1249 1201
0 0 0 0 0 0 0 0 0 0 0 0 0 0 0 0 32 47 77 123 156 167 180 266 327 413 538 845 981 1183 1190 1165
0 0 0 0 0 0 0 0 0 0 0 0 0 0 0 0 33 114 193 177 179 193 167 124 137 261 438 751 939 1128 1189 1206
0 0 0 0 0 0 0 0 0 0 0 0 0 0 1 0 1 66 159 169 187 134 89 54 97 213 349 642 915 1112 1181 1212
29 0 0 15 12 10 45 33 38 20 9 6 2 0 3 0 1 7 77 77 100 175 189 141 187 263 441 633 893 1070 1158 1226
71 64 5 10 39 52 41 29 32 23 12 5 0 1 0 0 8 58 97 136 151 285 273 351 461 661 753 836 893 1002 1082 1202
62 60 54 101 102 89 87 6 22 18 23 29 26 20 61 133 156 174 185 208 244 403 578 508 535 820 958 1123 1161 1073 1220 1620
88 72 184 169 183 149 27 6 28 36 62 57 30 86 167 214 251 242 249 247 266 384 544 761 858 863 855 1042 963 1057 1387 1590
21 25 99 237 175 111 58 25 20 49 118 127 113 134 199 276 314 321 320 308 570 709 687 701 765 1028 1030 825 954 1264 1458 1315
29 54 125 184 180 135 125 92 78 74 116 155 169 225 324 499 428 215 229 337 568 712 816 951 995 983 1033 1247 1274 1426 974 780
6 31 42 87 90 91 76 84 46 53 54 88 86 91 93 52 556 634 600 522 610 685 787 972 1088 1159 1249 1363 1166 695 492 490
3 5 17 3 15 44 53 3 7 2 0 2 2 0 0 0 57 719 768 737 744 854 931 1110 1168 1154 1122 850 559 370 237 68
0 0 1 25 28 35 1 0 0 0 0 0 0 0 0 0 0 207 583 818 994 1022 962 1064 864 835 775 650 486 302 68 15

GFSFLT2_con_mucape_003.txt.gz
CAPE
0 0 0 0 0 0 0 0 0 0 0 0 0 3 4 58 138 317 366 542 618 659 809 1143 1274 1599 1795 2104 2331 2262 1997 2778
0 0 0 0 0 0 0 0 0 0 0 0 0 13 67 42 134 326 561 674 707 1003 1009 1211 1221 1511 1644 2005 2254 2350 1980 2324
0 0 0 0 0 0 0 0 0 0 0 0 13 257 77 83 115 294 614 828 1030 1202 1069 1197 1270 1336 1721 1709 2110 2042 2124 2679
0 0 0 0 0 0 0 0 0 0 0 0 0 0 2 24 43 105 650 997 953 1053 1079 1108 1348 1254 1446 1603 1646 2154 2500 2656
0 0 0 0 0 0 0 0 0 0 0 0 0 0 0 31 87 119 395 661 955 1038 1336 1327 1384 1798 1501 1807 1740 1875 2301 2124
0 0 0 0 0 0 0 0 0 0 0 0 0 3 23 34 149 127 189 743 884 1013 1709 1914 2062 2135 2083 1850 1868 1912 1949 2096
0 0 0 0 0 0 0 0 0 0 0 0 57 218 230 226 318 109 166 438 881 1005 1800 2009 2095 1870 1895 1751 2075 2215 2320 2133
0 0 0 0 0 0 0 0 0 0 0 0 0 66 148 134 297 207 220 335 700 913 1016 1255 1499 1464 1456 1678 1947 2114 2133 1970
2 0 0 0 0 0 0 0 0 0 0 0 0 9 123 210 331 503 493 415 520 742 902 924 982 1131 1154 1387 1563 1785 1883 1732
71 44 15 0 0 0 0 0 0 0 0 0 19 57 19 13 161 386 531 523 407 255 406 556 520 671 935 1284 1654 1791 1815 1632
18 61 25 0 0 0 0 0 0 0 0 0 0 22 53 1 0 77 157 404 480 344 350 474 392 639 974 1257 1582 1779 1792 1719
84 46 33 70 56 19 33 0 0 0 28 36 17 73 200 1 5 66 278 570 591 590 583 820 764 851 1213 1390 1573 1737 1748 1681
322 181 50 86 81 84 120 73 0 4 14 30 120 160 73 161 454 490 430 707 919 964 1004 1125 1349 1392 1602 1658 1770 1785 1688 1316
456 366 165 62 189 283 179 31 44 65 99 82 93 131 238 317 453 653 788 945 1230 1482 1585 1358 1514 1839 1881 1877 1670 1394 1421 1434
270 264 24 66 250 140 163 147 125 207 163 179 232 328 395 546 635 814 1200 1401 1372 1379 1500 1381 1465 1596 1506 1116 843 1018 1055 1402
75 92 4 109 120 167 156 130 167 257 259 343 237 446 922 1013 892 759 1018 1388 1627 1778 1660 1282 969 798 932 844 1090 1008 1137 1200
348 35 41 33 70 73 91 93 93 50 101 114 139 93 450 1346 1384 1274 1359 1338 1550 1818 1833 1457 1079 1052 995 1074 1051 1099 1023 1059
123 50 63 43 30 75 61 50 54 62 60 66 82 64 83 339 1104 1415 1487 1606 1702 1692 1261 941 1023 1016 1065 1060 1121 1161 1052 918
30 17 5 38 80 33 28 0 0 0 0 0 0 8 4 39 36 235 528 958 1736 1575 1308 1059 949 894 889 783 725 762 615 538

GFSFLT2_con_mucape_006.txt.gz
CAPE
0 0 0 0 0 0 27 48 28 2 1 0 1 16 3 29 82 199 623 594 354 598 795 1066 1328 1816 2425 3132 3002 3029 2976 3411
0 0 0 0 0 0 7 77 19 8 16 0 16 0 0 13 98 239 555 670 496 571 770 1013 1280 1567 1957 2311 2967 2788 2771 2934
0 0 0 0 0 0 1 10 17 34 3 0 0 0 0 0 110 150 453 806 787 658 709 1060 1152 1365 1789 2156 2444 2701 2706 3320
0 0 0 0 0 0 6 4 12 17 1 2 0 0 0 0 5 9 240 745 962 931 971 1035 1302 1255 1444 1769 2170 2532 3125 3354
0 0 0 0 0 0 0 1 110 27 1 0 0 0 0 48 102 114 443 790 1107 1126 1309 1374 1376 1721 1559 1850 2019 2190 2602 2756
0 0 0 0 0 0 0 3 3 8 36 16 0 0 0 1 112 195 728 916 1228 1256 1570 1661 2055 2732 2687 1972 2073 2235 2331 2709
0 0 0 0 0 0 0 0 4 0 13 17 6 0 0 0 3 213 851 946 1328 1502 2240 2758 2630 2686 2566 2382 2373 2379 2567 2653
43 8 7 3 0 0 0 0 0 0 0 1 2 0 0 0 0 244 960 1052 1418 1698 1936 2359 2377 2566 2647 2642 2501 2637 2798 2872
158 91 65 57 11 8 0 0 0 0 0 0 0 0 0 7 128 276 914 1117 1314 1679 1863 2291 2389 2668 2647 2643 2609 2701 2921 2963
359 252 191 2 2 1 0 0 0 0 0 0 0 0 18 125 69 296 949 1146 1283 1410 1773 1965 1907 2039 2160 2339 2546 2684 2899 2915
274 342 185 64 123 21 4 0 0 0 0 0 0 5 347 231 220 544 1037 1363 1377 1339 1576 1802 1538 1781 1916 2062 2289 2463 2655 2714
333 234 182 494 385 275 318 62 0 0 0 0 0 64 0 385 146 295 814 1029 1181 1094 1365 1348 1319 1474 1778 1914 2244 2473 2615 2652
331 365 295 526 276 459 395 44 11 0 21 19 112 357 553 395 446 631 996 1176 1267 1210 1127 1351 1325 1546 1714 1903 2145 2341 2554 2650
450 507 424 217 491 617 688 542 486 369 395 436 549 783 901 894 1099 1214 1131 976 910 1408 1750 1743 1782 2053 2280 2385 2544 2670 2714 2558
431 348 376 229 265 443 624 686 630 663 626 685 679 759 862 905 839 913 875 864 1007 1544 1943 2141 2347 2390 2625 3092 2726 2676 2128 2074
686 404 182 165 177 350 544 628 567 553 507 530 499 534 593 705 899 1199 1337 1213 1245 1447 1878 2344 2389 2450 2750 2147 2234 2377 2121 2087
413 290 134 95 98 54 119 328 449 459 468 579 945 1014 1328 1397 1330 1340 1435 1347 1280 1470 2065 2282 2262 2258 2062 1973 1846 1834 1726 1733
231 255 157 0 7 2 4 34 67 137 160 181 322 470 837 1273 1653 1687 1863 1889 1978 2016 2291 2359 2322 2236 2175 1815 1985 1854 1616 1384
271 67 103 25 14 16 11 8 0 16 78 96 83 54 20 105 142 229 934 1363 2183 1949 2067 2069 2156 2130 2056 1995 1768 1597 1448 1375

GFSFLT2_con_mucape_009.txt.gz
CAPE
0 0 0 0 0 0 29 77 69 62 58 34 41 90 75 45 25 42 175 588 514 373 630 1365 1633 2466 2883 3740 4310 4436 3615 4760
0 0 0 0 0 0 13 104 88 78 79 61 71 37 8 40 14 22 52 473 628 459 528 1037 1137 1800 2693 3396 4113 3847 4038 4279
0 0 0 0 0 0 4 44 69 85 85 69 130 44 14 8 12 38 58 326 684 604 553 733 872 1417 2009 2645 3579 3838 3938 3937
0 0 0 0 0 0 23 45 28 120 81 28 22 21 28 12 5 6 49 197 582 724 636 740 1110 1054 1299 1635 1915 2942 3573 4228
0 0 0 0 0 0 0 4 138 84 7 52 47 38 81 63 10 43 69 96 480 703 862 1022 999 1360 982 1533 1299 1777 3082 3239
0 0 0 0 0 0 0 0 3 12 50 97 78 37 13 7 0 22 88 424 448 887 1362 1594 1790 1988 1748 1525 1133 1526 2113 2428
0 1 9 2 0 0 0 0 0 0 46 51 168 105 43 21 3 0 13 626 923 1210 2428 2792 2693 2774 2574 2070 2250 1988 2876 2907
1 0 0 2 4 1 0 0 0 0 0 28 44 102 64 2 6 0 0 49 1021 1389 1749 2932 3147 3510 3239 3038 3053 2867 3675 3580
85 40 67 77 0 0 2 2 0 0 0 0 23 89 124 23 4 8 26 87 857 1352 1818 2549 2382 3453 3589 3770 3369 3641 4179 4500
91 320 193 0 18 35 28 21 17 10 1 0 16 55 32 22 2 117 286 211 435 1160 1896 2826 2354 2437 3151 3215 4225 4449 4621 4545
357 414 243 138 329 416 370 62 12 35 6 0 0 0 10 3 0 0 106 175 624 1402 1910 3405 2974 3589 3800 3319 3849 3811 3845 4229
495 298 382 287 454 502 363 149 7 26 33 2 5 29 11 15 40 420 494 156 1158 1656 2153 2699 3267 2756 3159 2927 3190 3384 3607 3637
183 348 266 803 431 570 329 357 1104 837 552 223 21 64 225 182 132 531 615 1345 1880 2111 2970 3269 3167 2584 3278 3055 2813 2740 2939 3027
232 217 254 674 648 611 1205 1033 1090 1057 880 927 90 92 693 725 822 935 1218 1637 1759 2364 2710 2618 2911 3088 3299 3451 3609 3832 3647 3344
242 529 1269 917 791 908 905 1046 1033 1055 993 843 610 932 1103 1363 1703 1789 1750 1830 1731 1727 2590 2431 3105 3286 3675 4382 4112 3879 3706 3494
1086 925 794 910 831 926 1068 1047 1003 1098 1134 1137 1166 1266 1415 1558 1409 1256 1223 1696 1531 1751 2361 2769 3159 2903 3590 3411 3365 3356 2908 2548
1159 868 831 677 699 769 1002 1049 1048 1358 1564 1308 1482 1481 1516 1617 1526 1336 1362 1832 1960 1903 2183 2420 2677 2909 2583 2885 3062 2758 2934 2574
600 798 703 184 118 343 399 483 586 808 932 1188 1385 1403 1648 1561 1436 1393 1396 1541 2079 1920 2268 2558 2644 2649 2616 2567 2692 2441 2324 2078
323 314 48 0 32 99 61 16 2 25 73 104 94 266 282 447 668 850 1522 1514 1664 1885 2234 2516 2576 2651 2352 2501 2518 2442 1893 1851

GFSFLT2_con_mucape_012.txt.gz
CAPE
0 0 0 0 0 0 0 1 21 24 29 19 125 144 26 1 48 197 709 716 548 1000 989 1600 1598 1952 2390 3482 3855 4118 4085 4152
0 0 0 0 0 0 0 3 23 18 86 113 132 353 78 94 60 64 43 816 812 680 1206 1500 1735 1903 2471 3005 3860 4202 4173 4109
0 0 0 0 0 0 0 0 13 38 29 148 417 729 401 163 72 41 32 264 736 790 838 1441 1833 1904 2306 2622 3652 4104 4117 4060
0 0 0 0 0 0 0 0 0 0 7 29 333 167 266 92 95 53 49 173 444 963 801 1108 1478 1700 2162 2602 3178 3748 3899 3952
0 0 0 0 0 0 0 0 0 21 0 2 90 6 361 136 99 200 205 484 549 719 920 991 1140 1517 1961 2337 2712 3470 3637 3665
0 0 0 0 0 0 0 0 0 0 5 33 300 259 141 378 96 188 523 872 1003 914 1269 1094 1232 1513 1770 2105 2324 2859 3254 3363
0 0 0 0 0 0 0 0 0 0 0 27 199 379 111 282 272 155 604 1038 1178 1478 1963 1615 1734 1696 1632 1766 1843 2013 2768 3137
0 0 0 0 10 0 0 0 0 0 0 0 8 111 242 209 88 276 259 366 1322 1700 3064 3160 2180 1945 1717 1679 1706 1895 2238 2663
0 0 1 42 0 3 3 0 0 0 0 0 14 96 415 649 472 408 339 297 1413 1927 2156 2871 2881 2422 1949 1805 1977 1916 2565 2726
0 68 90 0 1 0 0 0 0 0 0 0 0 4 16 15 212 242 308 219 336 852 2102 2631 2877 2626 2659 2363 2573 2495 3667 3264
106 32 5 23 39 154 63 5 12 0 22 6 3 0 5 0 3 21 40 780 464 86 1889 2696 2942 2917 3407 3012 2748 3794 3365 4630
124 73 113 223 191 455 242 211 496 584 263 103 125 60 0 16 14 4 9 122 549 331 2303 3358 3354 3200 3366 3692 3440 3233 4295 4442
95 40 0 388 388 134 147 287 1039 907 856 714 551 806 966 527 1617 649 132 382 1574 3051 2911 3519 3615 3516 3660 3819 3989 4020 4533 4546
369 336 202 454 205 155 1077 865 774 683 652 743 1105 922 905 1172 1328 1640 843 918 3037 3569 4082 4067 3948 4029 4174 4245 4439 4556 4489 4465
40 34 715 1114 1253 1018 925 883 934 828 723 702 666 826 787 1434 1023 1234 1143 2930 2691 3753 4123 4124 4552 4039 4149 4397 4092 4013 4029 4257
146 489 1068 821 624 819 876 1126 1212 1906 2036 1322 808 922 1324 1702 2099 2674 2767 3062 3123 3084 3414 3680 3859 4085 4327 4345 4222 4134 4104 3715
242 1460 1142 1038 1101 1077 1159 1617 1771 1513 1461 1784 1884 1973 2005 2647 2846 2755 2736 2821 3006 3139 3594 3959 4403 4034 4060 4243 4026 3253 2891 2647
1066 769 1275 612 697 689 648 754 860 1061 1195 1158 1138 1074 1196 1900 2191 2464 2607 2497 2641 3122 3432 3445 3496 3587 3788 3882 3263 3053 2608 2247
63 48 128 91 76 111 228 288 283 523 527 273 455 532 566 642 1171 1455 1672 2167 2831 3196 3323 3221 3208 3042 3310 3654 3418 2843 2372 2310

GFSFLT2_con_mucape_015.txt.gz
CAPE
0 0 0 0 0 0 0 0 0 0 0 0 13 58 97 90 117 70 34 63 243 149 377 700 781 1532 1648 2585 2421 2575 2602 2658
0 0 0 0 0 0 0 0 0 0 0 0 7 53 98 86 57 26 13 172 224 182 383 696 830 1344 1578 2519 2616 2718 2314 2911
0 0 0 0 0 0 0 0 0 0 0 0 0 142 80 62 41 51 55 92 189 198 432 825 955 1300 1637 2171 2697 2828 2861 2612
0 0 0 0 0 0 0 0 0 0 0 0 0 138 154 85 54 53 21 62 225 327 392 980 1108 1130 1583 2578 2696 2917 3075 2941
0 0 0 0 0 0 0 0 0 0 0 0 0 66 60 95 36 24 22 325 500 420 680 1112 1193 1138 1578 2215 2976 3088 3269 3230
0 0 0 0 0 0 0 0 0 0 0 0 0 18 1 81 30 1 168 10 351 552 759 1005 1324 1283 1406 1916 2791 3191 3418 3326
0 0 0 0 0 0 0 0 0 0 0 0 0 82 63 63 58 14 9 65 303 670 561 988 1342 1399 1460 1761 2007 2965 3191 3285
0 0 0 0 0 0 0 0 0 0 0 0 0 33 272 171 97 13 3 530 723 790 686 746 1035 1286 1502 1664 1974 2327 2939 3061
0 0 0 0 0 0 0 0 0 0 0 0 0 0 0 124 209 37 14 416 557 739 817 738 852 1050 1337 1664 1773 2084 2498 2853
0 0 0 0 0 0 0 0 0 0 0 0 0 0 0 2 1 66 7 90 559 805 2051 1140 1140 1043 1311 1486 1802 1925 2051 2598
0 0 0 0 0 0 0 0 0 60 2 0 0 0 0 0 0 0 0 41 0 762 1082 2380 1558 1296 1228 1312 1616 1734 1773 1967
0 0 0 0 0 343 212 52 769 550 486 373 135 1 0 257 225 0 0 0 0 0 652 1561 2334 1880 1510 1337 1474 1461 1466 1995
0 0 0 0 103 221 130 379 766 570 490 494 446 465 401 456 455 963 691 24 0 211 1332 1661 2226 2327 2098 1759 1512 1996 1467 3575
83 5 0 443 368 187 521 894 488 365 330 391 456 333 494 391 403 732 700 1853 302 1488 1616 2296 2433 2709 2760 2329 2466 2825 3769 4114
23 174 757 627 645 385 94 645 902 1584 2073 1271 1110 1314 742 1261 796 757 2787 3312 3467 3269 3436 3553 3100 3127 3477 3877 3773 3769 3939 4100
179 53 124 180 195 499 1400 1079 1362 1519 1461 1357 1438 1870 2289 2154 2181 2586 2840 2994 3112 3350 3569 3583 3653 3690 3742 3677 3680 3681 3712 3748
153 169 721 732 842 903 917 673 591 1326 1411 1563 1517 1678 1917 2329 2434 2435 2632 2719 2793 3118 3326 3380 3439 3407 3363 3429 3458 3475 3401 3321
160 52 416 453 330 263 558 656 697 999 1268 1336 1389 1465 1713 1720 1587 1135 1317 2489 3198 3275 3353 3372 3352 3354 3335 3153 3145 2929 2767 2707
50 112 279 223 64 38 121 222 363 623 747 965 881 829 777 839 856 593 43 490 2742 3010 3063 3171 3065 3032 2761 2630 2647 2689 2602 2404

GFSFLT2_con_mucape_018.txt.gz
CAPE
0 0 0 0 0 0 0 0 0 0 0 0 0 0 5 25 31 51 167 117 12 11 97 207 274 789 1097 1315 1163 1468 1461 1465
0 0 0 0 0 0 0 0 0 0 0 0 0 0 10 26 20 87 179 103 14 15 135 298 270 785 1148 1492 1411 1610 1758 1510
0 0 0 0 0 0 0 0 0 0 0 0 0 0 0 0 27 86 300 187 94 103 143 242 395 798 1326 1531 1486 1712 1944 1875
0 0 0 0 0 0 0 0 0 0 0 0 0 0 0 11 87 142 311 259 156 153 212 183 563 829 1270 1794 1682 1745 2007 2061
0 0 0 0 0 0 0 0 0 0 0 0 0 0 0 29 78 195 343 253 70 70 129 341 589 747 1288 1689 2002 2010 2111 2126
0 0 0 0 0 0 0 0 0 0 0 0 0 0 0 15 92 108 101 127 70 81 176 377 667 777 1268 1464 2165 2237 2363 2239
0 0 0 0 0 0 0 0 0 0 0 0 0 0 0 0 11 152 114 45 46 15 203 427 812 882 1177 1567 1963 2309 2442 2596
0 0 0 0 0 0 0 0 0 0 0 0 0 0 0 0 0 15 103 86 4 77 277 345 822 1001 1095 1437 2207 2380 2614 2666
0 0 0 0 0 0 0 0 0 0 0 0 0 0 0 0 0 0 60 7 2 217 299 491 845 1044 1105 1507 2044 2606 2683 2879
0 0 0 0 0 0 0 0 0 0 0 0 0 0 0 0 0 0 21 9 164 354 461 680 873 1108 1199 1404 1820 2533 2698 2852
0 0 0 0 0 0 0 0 0 0 0 0 0 0 0 0 0 0 0 0 6 602 506 604 857 1139 1242 1376 1765 1975 2500 2686
0 0 0 0 0 1 0 0 189 0 0 0 0 0 0 0 2 0 0 0 37 256 1085 800 829 861 1114 1326 1596 1861 2062 2461
0 0 0 0 0 40 8 0 231 73 5 0 0 0 56 203 28 400 0 0 0 0 581 1517 978 794 871 1072 1346 1652 1942 2042
35 18 13 25 42 0 31 655 194 62 23 0 0 0 0 76 101 576 487 374 0 0 0 238 1482 1234 1037 977 1098 1432 1630 1787
42 4 381 61 1059 715 1260 1272 1162 910 743 918 1347 1858 1984 2293 1990 722 1646 1947 2052 239 0 37 961 1465 1257 1209 1163 1313 1432 1687
3 39 810 259 1146 874 1041 1013 969 861 894 1049 1487 1993 2112 2219 2394 2530 2687 2896 2986 2814 2461 2418 1908 1850 1549 1514 1931 1995 2236 3191
118 6 378 618 524 614 628 631 618 1036 1094 1278 1704 2066 2073 2046 2059 2131 2392 2754 3107 3301 3204 3040 3118 3076 3001 2524 3235 3165 2996 2832
81 70 115 340 439 387 285 104 212 383 900 1281 1543 1730 1917 1771 1588 1465 1444 1583 1916 1994 2461 2352 2838 3110 3245 2963 2725 2954 3157 2857
113 114 125 75 17 95 137 328 100 129 60 523 969 1135 1242 1182 1091 1088 1059 871 613 876 673 475 965 952 3342 3135 2979 3063 2853 2885

GFSFLT2_con_mucape_021.txt.gz
CAPE
0 0 0 0 0 0 0 0 0 0 0 0 0 0 0 0 0 1 6 27 31 87 58 78 146 268 539 532 615 1195 1192 1088
0 0 0 0 0 0 0 0 0 0 0 0 0 0 0 0 0 0 3 14 43 60 88 59 113 146 492 577 525 772 1256 1155
0 0 0 0 0 0 0 0 0 0 0 0 0 0 0 0 0 0 0 0 31 81 126 129 73 91 375 672 630 602 993 1135
0 0 0 0 0 0 0 0 0 0 0 0 0 0 0 0 0 0 0 14 33 93 128 129 91 114 435 678 798 745 958 1069
0 0 0 0 0 0 0 0 0 0 0 0 0 0 0 0 0 0 0 5 4 41 100 78 67 192 538 749 973 947 1033 1230
0 0 0 0 0 0 0 0 0 0 0 0 0 0 0 0 0 0 7 9 20 5 141 121 93 272 527 938 1078 1135 1267 1406
0 0 0 0 0 0 0 0 0 0 0 0 0 0 0 0 0 0 0 48 77 67 245 215 203 302 515 884 1231 1281 1385 1581
0 0 0 0 0 0 0 0 0 0 0 0 0 0 0 0 0 0 0 2 96 154 227 141 69 282 500 937 1262 1539 1575 1710
0 0 0 0 0 0 0 0 0 0 0 0 0 0 0 0 0 0 0 0 30 184 322 317 144 318 533 929 1187 1798 1834 1857
0 0 0 0 0 0 0 0 0 0 0 0 0 0 0 0 0 0 0 0 0 43 62 90 149 434 637 919 1273 1709 1972 2029
0 0 0 0 0 0 0 0 0 0 0 0 0 0 0 0 0 0 0 0 0 0 87 65 261 581 869 987 1220 1809 2029 2163
0 0 0 0 0 0 0 0 0 0 0 0 0 0 0 0 0 0 0 0 0 0 7 154 392 690 995 1072 1322 1825 2165 2278
0 0 0 0 0 1 0 0 0 0 0 0 0 0 0 0 0 0 0 0 0 0 220 344 535 923 1132 1162 1239 1550 2097 2366
0 0 0 15 75 132 46 15 0 0 0 0 0 162 184 434 162 938 1783 2098 2032 116 0 574 587 880 1096 1203 1275 1405 1651 2005
0 0 86 107 288 817 620 599 418 242 389 886 1265 1368 1392 1289 1057 1347 1876 2194 2297 2401 2161 549 42 844 840 1133 1285 1385 1464 1671
113 95 146 192 716 723 762 590 591 668 924 1129 1370 1312 1470 1748 1856 1833 1867 1928 2433 2486 1945 1958 2325 1583 1066 1117 1009 1195 1456 1527
125 93 252 240 262 522 613 884 975 1185 1450 1402 1484 1339 1171 1194 1327 1655 1951 1906 1810 1720 2318 2621 2509 2505 2384 1986 1470 1100 1175 1363
145 19 45 88 185 270 486 491 799 1113 1406 1602 1675 1604 1524 1353 1240 1152 1050 1060 1125 1192 1339 1182 1555 2077 1916 2695 2444 1651 1421 1769
80 24 0 6 36 67 223 180 351 252 472 789 767 808 981 1193 912 574 546 582 546 543 550 540 508 926 1083 1041 2358 2621 2367 2211

GFSFLT2_con_mucape_024.txt.gz
CAPE
0 0 0 0 0 0 0 0 0 0 0 0 0 0 0 0 0 0 0 1 98 223 282 145 135 199 315 411 433 474 490 460
0 0 0 0 0 0 0 0 0 0 0 0 0 0 0 0 0 4 0 0 1 9 63 100 90 133 251 388 406 487 565 550
0 0 0 0 0 0 0 0 0 0 0 0 0 0 0 0 0 5 0 0 0 1 6 14 32 69 201 359 421 440 745 753
0 0 0 0 0 0 0 0 0 0 0 0 0 0 0 0 0 0 0 0 0 0 2 11 13 17 74 335 395 420 851 969
0 0 0 0 0 0 0 0 0 0 0 0 0 0 0 0 0 0 0 0 2 0 0 0 4 25 35 212 456 438 504 1019
0 0 0 0 0 0 0 0 0 0 0 0 0 0 0 0 0 0 0 0 0 0 0 0 0 57 62 159 384 560 557 794
0 0 0 0 0 0 0 0 0 0 0 0 0 0 0 0 0 0 0 0 0 0 1 18 0 62 145 214 395 658 722 761
0 0 0 0 0 0 0 0 0 0 0 0 0 0 0 0 0 0 0 0 0 0 14 131 101 181 272 348 611 778 922 940
0 0 0 0 0 0 0 0 0 0 0 0 0 0 0 0 0 0 0 0 0 0 25 141 249 310 414 476 735 933 1089 1177
0 0 0 0 0 0 0 0 0 0 0 0 0 0 0 0 0 0 0 0 0 0 0 56 325 401 447 442 843 1140 1217 1270
0 0 0 0 0 0 0 0 0 0 0 0 0 0 0 0 0 0 0 0 0 0 0 0 98 416 485 467 856 1194 1436 1420
0 0 0 0 0 0 0 0 0 0 0 0 0 0 0 0 0 0 0 0 0 0 0 0 0 17 297 542 862 1087 1584 1702
0 0 0 0 4 18 0 0 0 0 0 0 0 0 0 0 0 34 28 0 0 0 0 0 0 42 344 478 783 1118 1409 1793
0 0 0 28 42 86 0 0 0 19 0 0 0 71 218 439 940 1365 1688 1891 939 0 0 0 170 128 436 637 814 1030 1435 1775
0 0 0 140 140 74 51 51 188 36 188 174 415 377 194 400 843 1333 1752 1949 1686 1507 1625 1538 570 378 636 850 864 922 1202 1773
0 4 0 226 174 157 209 392 370 454 827 498 602 541 593 749 833 897 883 812 771 845 1384 1578 1708 2107 1853 1715 1519 892 1024 1398
0 0 148 152 105 238 294 545 858 965 832 889 975 999 941 977 841 726 700 655 628 597 585 499 417 405 395 844 1827 2469 1644 1030
5 0 115 85 99 287 334 576 769 903 847 862 796 716 634 517 439 432 337 328 385 395 236 58 16 20 38 89 228 2015 2566 2005
0 9 126 111 181 255 294 259 593 707 710 1001 1059 1065 804 661 479 392 359 56 0 0 25 0 15 15 3 5 0 1016 2349 2255

GFSFLT2_con_mucape_027.txt.gz
CAPE
0 0 0 0 0 0 0 0 0 0 0 0 0 0 0 0 0 235 603 721 754 1100 1336 1313 1393 1234 1334 1452 1656 1707 1666 1762
0 0 0 0 0 0 0 0 0 0 0 0 0 0 0 0 0 0 33 411 667 989 1110 1162 1051 1311 1254 1439 1659 1761 1754 1716
0 0 0 0 0 0 0 0 0 0 0 0 0 0 0 0 0 0 0 55 190 736 1142 1200 842 1068 1191 1422 1687 1821 1827 1812
0 0 0 0 0 0 0 0 0 0 0 0 0 0 0 0 0 0 22 98 101 170 431 660 1135 986 1194 1325 1550 1746 1832 1931
0 0 0 0 0 0 0 0 0 0 0 0 0 0 0 0 0 0 0 27 132 92 376 672 948 1087 1018 1125 1161 1282 1793 1866
0 0 0 0 0 0 0 0 0 0 0 0 0 0 0 0 0 0 0 60 185 132 653 652 806 1030 1103 1158 1108 1268 1489 1806
0 0 0 0 0 0 0 0 0 0 0 0 0 0 0 0 0 0 0 0 1 134 726 991 1021 1132 1063 1137 1405 1441 1713 1769
0 0 0 0 0 0 0 0 0 0 0 0 0 0 0 0 0 0 0 0 0 353 424 633 1040 1128 1108 1207 1331 1613 1786 1720
0 0 0 0 0 0 0 0 0 0 0 0 0 0 0 0 0 0 0 0 0 196 461 658 652 1105 1047 1203 1204 1619 1861 1931
0 0 0 0 0 0 0 0 0 0 0 0 0 0 0 0 0 0 0 0 0 0 15 861 381 319 984 1226 1558 1723 1931 2138
0 0 0 0 0 0 0 0 0 0 0 0 0 0 0 0 0 0 0 0 0 0 0 606 738 883 1181 1389 1701 1909 2010 2208
0 0 0 0 0 0 0 0 0 0 0 0 0 0 0 0 0 0 0 0 0 0 0 1 496 389 991 1216 1632 2025 2154 2263
0 0 0 0 0 61 0 0 0 0 0 32 10 0 0 0 0 0 1 0 0 0 0 29 46 315 1289 1452 1793 2012 1858 2055
0 0 0 0 0 0 12 22 8 0 0 2 73 179 0 111 1190 2092 2130 1398 0 0 38 555 680 750 1564 2182 1998 2107 2249 2682
0 0 0 0 0 36 155 104 46 16 0 0 54 338 73 1098 1584 1881 2142 1809 1205 967 1232 1185 1337 1528 1788 1786 1796 2120 2588 3149
0 0 0 0 0 0 83 106 85 60 79 105 371 440 310 352 1110 1421 1374 1373 1128 1198 1408 1569 1506 1797 2035 2386 2404 2247 2781 3019
0 0 0 0 0 0 1 97 122 127 533 555 216 2 7 220 413 527 476 438 369 376 425 360 464 388 229 355 2150 3073 2368 2333
0 0 23 3 0 2 43 104 92 157 596 738 338 187 277 330 343 301 258 269 242 223 255 226 295 329 267 266 197 1056 1793 2111
0 0 1 24 14 123 145 102 150 252 627 715 714 583 504 333 335 63 58 65 181 552 740 849 753 688 675 629 407 488 724 1230

GFSFLT2_con_mucape_030.txt.gz
CAPE
0 0 0 0 0 0 0 0 0 0 0 0 0 0 0 0 0 0 349 1048 1242 1312 1481 1693 1870 2404 2520 2899 3420 2990 2477 3596
0 0 0 0 0 0 0 0 0 0 0 0 0 0 0 0 0 0 207 955 1171 1318 1392 1595 1765 1888 2321 2876 3152 3256 2791 3018
0 0 0 0 0 0 0 0 0 0 0 0 0 0 0 0 0 0 94 718 903 1044 1208 1416 1649 1873 1995 2274 2835 2903 3003 3244
0 0 0 0 0 0 0 0 0 0 0 0 0 0 0 0 0 0 22 76 187 545 875 1152 1478 1677 1941 1960 2028 2464 2874 3360
0 0 0 0 0 0 0 0 0 0 0 0 0 0 0 0 0 0 0 14 108 142 342 884 1244 1556 1519 1839 1785 1885 2743 2496
0 0 0 0 0 0 0 0 0 0 0 0 0 0 0 0 0 0 0 0 0 37 190 517 1166 2163 2340 1487 1622 1655 1942 2199
0 0 0 0 0 0 0 0 0 0 0 0 0 0 0 0 0 0 0 0 0 362 530 1037 1337 2004 2512 1820 2011 1880 2602 2324
0 0 0 0 0 0 0 0 0 0 0 0 0 0 0 0 0 0 0 0 0 0 199 714 1254 1624 1883 2635 2182 2057 2834 2840
0 0 0 0 0 0 0 0 0 0 0 0 0 0 0 0 0 0 0 0 0 0 17 594 1028 1367 1491 2454 2020 2485 2880 3204
0 0 0 0 0 0 0 0 0 0 0 0 0 0 0 0 0 0 0 0 0 0 0 82 437 123 1124 1361 2672 2860 3123 3304
0 0 0 0 0 0 0 0 0 0 0 0 0 0 0 0 0 0 0 0 0 0 0 0 0 155 359 1326 1876 2600 3156 3389
0 0 0 0 0 0 0 0 0 0 0 0 2 0 0 0 0 0 0 0 0 0 0 0 127 224 622 1151 1554 2588 3008 3277
0 0 0 0 0 16 0 60 8 0 0 2 229 117 145 78 64 2 0 0 0 0 0 37 419 644 1056 1290 1677 2423 2349 2415
0 0 0 0 0 0 6 5 1 2 0 0 11 80 423 606 662 218 69 669 1172 332 0 16 640 630 1193 2941 2489 2985 3083 3084
0 0 0 0 0 0 0 0 0 1 3 0 12 144 467 921 909 20 435 1275 1690 13 243 1386 1904 1567 1639 2737 2643 2702 2999 3669
0 0 0 4 0 0 0 0 0 0 0 0 1 269 890 1194 781 1060 1728 2440 2084 1387 1305 1988 2517 2625 2869 2875 2719 2767 2875 3131
0 27 12 0 0 0 0 0 0 0 0 3 11 514 1086 894 936 1382 1525 1290 1451 1791 1899 1864 1976 2011 2185 2719 3430 2926 3120 3231
0 32 46 27 32 0 0 0 0 0 0 0 94 411 414 903 1075 989 1125 1002 976 963 1041 1162 1093 1147 1228 1225 1326 1848 2398 2539
0 36 45 50 36 1 46 4 0 9 11 107 53 469 285 418 335 577 791 1040 1307 1367 1424 1437 1358 1203 614 814 1496 1653 1541 1516

GFSFLT2_con_mucape_033.txt.gz
CAPE
0 0 0 0 0 0 0 0 0 0 0 0 0 0 0 1 0 25 199 623 931 1279 1489 1998 1884 2412 2567 3137 3788 4039 3666 4080
0 0 0 0 0 0 0 0 0 0 0 0 0 0 0 0 0 0 47 410 867 1173 1416 2002 1792 2254 2678 3004 3598 3841 3477 3820
0 0 0 0 0 0 0 0 0 0 0 0 0 0 0 0 0 0 0 173 722 1153 1344 1673 1773 1806 2386 2836 3499 3829 3763 3768
0 0 0 0 0 0 0 0 0 0 0 0 0 0 0 0 0 0 0 80 657 1153 1137 1320 1684 1809 2082 2503 2528 3662 3785 3880
4 0 0 0 0 0 0 0 0 0 0 0 0 0 0 0 0 0 0 130 686 893 1037 1181 1437 2155 1996 2512 2119 2266 3248 3444
0 0 0 0 0 0 0 0 0 0 0 0 0 0 0 0 0 0 0 20 211 330 498 1134 1601 2564 2854 2368 2258 2288 2501 2859
0 4 0 0 0 0 0 0 0 0 0 0 0 0 0 0 0 0 0 0 1 89 432 933 2052 2882 3096 2400 2841 2548 3151 3153
0 0 0 0 0 0 0 0 0 0 0 0 0 0 0 0 0 0 0 0 0 0 89 552 1404 2615 2828 3201 2798 2824 3479 3342
0 0 0 0 0 0 0 0 0 0 0 0 0 0 0 0 0 0 0 0 0 0 0 259 633 1582 2022 3294 3226 2934 3378 3782
0 0 0 0 0 0 0 0 0 0 0 0 0 0 0 0 0 0 0 0 0 0 0 34 19 291 1415 1558 3813 3697 3634 3690
0 0 0 0 0 0 0 0 0 0 0 0 0 0 0 0 0 0 0 0 0 0 0 134 0 42 473 1643 2824 3744 3908 3861
0 0 0 1 1 0 0 0 0 0 0 0 0 0 0 129 50 32 0 0 0 0 0 0 62 0 0 256 1698 3625 3658 4076
0 0 0 2 20 11 0 186 46 5 0 4 22 164 360 211 244 527 648 514 249 157 74 165 113 67 1358 1224 1405 2704 3329 3999
0 0 0 0 0 3 37 23 16 13 21 47 67 60 115 119 393 626 983 787 400 397 1021 1174 431 783 2740 2973 3085 3777 3761 3970
0 0 0 0 0 0 0 0 1 0 0 2 0 3 31 162 629 1090 1141 805 37 310 1619 533 772 1067 2719 3751 4441 4389 4491 4638
0 0 0 0 0 0 0 0 0 0 0 0 0 0 0 280 997 1197 1167 1444 1962 2000 1703 1040 2063 2545 2454 3448 3665 4170 4740 4844
18 1 9 2 0 0 0 0 0 0 0 0 0 0 0 508 1564 1177 1660 2257 2041 2451 2558 2752 3134 3421 3449 3497 3231 3255 3426 3393
0 57 34 31 24 6 0 0 0 0 0 0 0 0 76 275 1326 1948 1681 1703 1839 1902 2007 1914 1867 1891 1991 2011 3338 3800 3592 3550
55 57 57 30 51 37 25 0 0 0 0 0 0 0 199 173 1181 1153 1846 1955 1715 1947 1925 1908 1809 1161 1172 1770 1988 2155 2434 2467

GFSFLT2_con_mucape_036.txt.gz
CAPE
0 0 0 0 0 0 0 0 0 0 0 0 0 0 0 11 95 174 341 541 1258 1650 1638 1385 1177 1438 1725 2405 2944 3179 2854 3391
0 0 0 0 0 0 0 0 0 0 0 0 0 0 0 0 8 82 218 488 1099 1527 1832 1648 1366 1431 1651 2315 2792 3214 3325 3138
0 0 0 0 0 0 0 0 0 0 0 26 0 0 0 0 0 62 230 479 903 1572 1742 2009 1682 1658 1679 1931 2804 3220 3281 3249
1 0 0 0 0 0 0 0 0 0 13 0 0 0 0 0 0 8 206 678 830 1351 1683 2024 2091 1892 1960 2046 2469 3060 3534 3438
0 2 0 0 0 0 0 0 0 0 0 0 0 0 0 0 19 82 457 375 762 1238 1549 1964 2135 2174 2186 2189 2190 2971 3458 3411
0 0 0 0 0 0 0 0 0 0 0 0 0 0 0 33 75 126 568 486 831 1203 1556 1839 2127 2398 2398 2370 2383 2495 3178 3450
0 2 20 0 0 0 0 0 0 0 0 0 0 0 0 0 152 312 641 708 1207 1324 1836 1941 2282 2506 2597 2530 2566 2528 2680 3203
0 8 1 0 0 0 0 0 0 0 7 0 0 23 4 41 57 200 158 103 188 537 695 1520 2498 2951 2569 2672 2821 2764 2758 2929
0 1 0 3 0 1 0 0 0 0 29 15 14 11 9 0 0 0 0 0 6 100 327 1008 1472 3277 3287 3024 3098 3270 2998 3261
1 56 16 0 2 0 3 0 0 0 64 148 241 63 0 0 0 0 0 0 128 0 56 1038 393 475 2111 3412 3495 3310 3880 3601
0 34 7 1 0 0 0 1 14 31 36 5 0 0 0 0 0 0 0 29 59 0 2 1426 842 974 1605 2066 3730 3726 3464 3920
0 18 2 0 0 0 1 0 30 0 0 0 0 0 458 520 228 351 560 988 1357 913 936 220 2046 406 2494 2214 2862 3636 3597 3435
0 0 0 0 0 0 0 188 122 31 74 81 174 656 452 179 172 390 871 1161 1385 1338 1268 2281 2246 1988 2875 2217 2348 3089 3601 3745
0 0 2 0 0 0 69 86 0 0 0 0 0 3 31 66 356 651 1213 1463 1188 1486 1656 1681 2692 2540 2944 3880 3984 4151 4223 4064
0 0 0 2 0 0 0 14 46 1 0 0 0 0 0 1 559 1069 1743 1962 1574 1265 1618 1906 1987 3187 3042 4783 5096 4868 5087 4912
0 0 0 0 0 0 0 0 1 12 0 0 0 0 0 0 60 1010 1992 2249 3052 3147 3420 3637 2642 3000 4366 4350 4436 5079 5233 5322
0 0 13 0 0 0 0 0 0 0 0 0 0 0 0 0 223 830 1272 2659 2816 3385 4009 4061 4454 4187 4045 4478 4801 4646 4830 4986
1 7 23 14 0 0 0 0 0 0 0 0 0 0 0 0 306 386 1411 2396 2882 2941 2690 2405 2288 2362 2870 3146 3849 4822 4644 4244
0 0 0 0 0 0 0 0 0 0 0 0 0 0 0 0 308 320 1003 2196 2369 2761 2276 2464 2430 1566 1547 2568 3008 3667 3975 4549

GFSFLT2_con_mucape_039.txt.gz
CAPE
0 0 0 0 0 0 0 0 0 0 0 0 0 0 0 0 63 541 649 678 763 708 710 731 722 1019 1118 1598 1390 1557 1823 1768
0 0 0 0 0 0 0 0 0 0 0 0 0 0 0 0 0 268 577 743 983 847 782 792 800 890 1247 1762 1718 1717 1742 1939
0 0 0 0 0 0 0 0 0 0 0 0 0 0 0 0 0 70 530 773 1125 998 864 850 876 851 1091 1500 1974 1951 1934 1763
0 0 0 0 0 0 0 0 0 0 0 0 0 0 0 0 0 0 390 507 1226 1189 1026 977 949 895 1022 1207 1916 2034 2139 1921
0 0 0 0 0 0 0 0 0 0 0 0 0 0 0 0 0 0 55 411 1209 1393 1290 1154 1040 933 953 1151 1588 2024 2257 2325
0 0 0 0 0 0 0 0 0 0 0 0 0 0 0 0 2 0 282 526 1185 1347 1473 1379 1154 1031 997 1039 1412 2022 2217 2424
0 0 0 7 0 0 0 0 0 0 0 0 1 25 14 0 5 64 227 517 1162 1256 1363 1597 1479 1271 1215 1147 1296 1602 2322 2556
0 0 8 4 0 0 0 0 0 0 0 0 0 14 3 0 0 29 67 320 672 1223 1321 1572 1755 1629 1494 1492 1469 1512 2103 2436
0 21 1 0 0 1 0 0 0 0 0 0 1 6 3 0 0 6 32 84 529 842 1150 1645 1767 1832 1830 1880 1717 1768 1761 2278
1 21 3 0 3 3 0 0 0 0 18 0 52 198 79 0 0 0 18 64 193 459 681 905 1247 2106 1981 1969 2197 2022 1992 2012
1 15 4 9 5 8 19 25 10 231 230 51 284 315 159 122 271 368 459 558 613 521 417 460 207 250 2343 2218 2335 2528 2276 2305
0 11 30 66 0 0 0 33 24 175 429 46 355 268 201 98 160 366 561 662 768 635 437 432 806 620 2343 2698 2530 2694 2823 2961
11 13 35 26 0 0 6 4 24 262 215 271 64 11 0 49 176 773 1157 1025 1050 795 745 879 623 554 1188 1727 2881 2687 2525 2806
16 20 68 5 1 10 0 0 25 35 428 185 40 0 9 51 478 917 1241 1661 2093 1756 1111 615 417 1274 852 892 1977 2524 2901 3033
7 7 0 0 0 0 0 0 27 0 19 15 26 12 71 73 174 988 1153 1697 2118 2338 2643 2992 1715 1306 1314 2972 3091 3701 2915 3096
0 0 0 0 0 0 0 0 30 0 0 0 0 0 0 8 5 1104 1209 1413 1683 2050 2683 3432 3264 3111 3192 3552 3295 2458 3343 4270
0 0 0 0 0 0 0 0 0 0 0 0 0 0 0 0 0 531 1011 952 1495 1557 2029 2576 2814 3114 3044 3173 3289 3810 2723 4592
0 0 0 0 0 0 0 0 0 0 0 0 0 0 0 0 0 80 52 41 427 1177 1566 1926 2255 2510 2433 2873 3237 3291 3818 4392
0 0 0 0 0 0 0 0 0 0 0 0 0 0 0 0 0 0 81 175 391 701 1075 1583 1594 1456 1294 1547 2125 3209 3395 3604

GFSFLT2_con_mucape_042.txt.gz
CAPE
0 0 0 0 0 0 0 0 0 0 0 0 0 0 0 0 177 137 445 531 496 563 389 356 439 640 585 437 425 886 946 890
0 0 0 0 0 0 0 0 0 0 0 0 0 0 0 0 6 52 565 709 604 622 446 446 545 602 727 624 487 616 1070 871
0 0 0 0 0 0 0 0 0 0 0 0 0 0 0 0 11 257 577 737 629 704 529 575 664 705 847 824 719 787 961 1215
0 0 0 3 0 0 0 0 0 0 0 0 0 0 0 0 0 312 672 685 713 769 621 690 734 754 740 1115 978 1005 1122 1302
0 0 0 3 0 0 0 0 0 0 0 0 0 0 0 0 0 0 475 780 807 739 734 778 806 772 955 1088 1315 1243 1301 1339
0 0 0 0 0 0 0 0 0 0 0 0 0 0 0 0 0 0 175 699 842 818 836 851 864 787 842 1084 1598 1598 1611 1615
0 0 0 0 0 0 0 0 0 0 0 0 0 0 0 0 0 0 198 686 1038 980 939 910 911 842 853 962 1355 1760 1827 1844
0 0 0 0 0 0 0 0 0 0 0 0 0 1 11 0 0 0 36 618 1163 1100 1069 1019 989 945 949 957 1170 1598 1849 1957
0 0 0 0 0 1 0 0 0 0 0 0 46 80 30 8 10 72 153 743 1201 1229 1181 1173 1162 1091 1063 1028 1038 1554 1783 1885
0 4 0 0 10 4 0 0 0 0 0 258 331 451 398 341 181 89 226 741 1150 1351 1382 1413 1363 1249 1175 1064 1090 1203 1649 2031
2 8 0 20 8 12 1 0 0 0 305 360 261 167 360 685 610 447 269 441 694 1199 1329 1588 1708 1746 1591 1465 1437 1384 1415 1574
8 14 8 1 24 23 0 0 0 62 295 172 54 84 276 802 994 1400 1342 732 613 790 1034 1185 1400 1589 1929 1959 1896 1815 1767 1750
7 24 2 8 19 2 5 4 84 192 143 24 0 0 178 815 1244 1685 1667 1719 1971 1916 1260 1071 1110 796 1675 2035 2102 2116 2085 1963
0 12 48 7 20 11 7 10 25 74 8 0 0 6 161 648 833 1340 1505 1576 2192 2797 2599 2092 796 1053 642 1409 2221 2275 2217 2377
7 2 0 0 6 0 0 9 21 40 3 0 0 6 48 671 791 1121 1443 1581 1721 2143 2634 2740 2619 2691 2830 2896 2432 2520 2529 2583
0 0 4 0 0 0 3 5 23 2 22 0 0 12 37 83 832 835 1256 1365 1514 1712 1946 2426 2501 2704 2708 2715 2787 3083 1868 3076
0 0 0 0 0 0 0 18 4 0 0 0 0 1 18 25 530 776 638 877 1177 1146 1404 1698 2018 2293 2430 2433 2615 2976 3127 3153
2 0 0 0 0 0 0 0 11 0 0 0 0 21 44 35 36 405 431 208 116 311 831 1052 1599 1268 1298 1772 1984 2057 2831 3068
0 0 5 0 0 0 0 0 0 0 0 0 0 5 4 0 0 0 1 0 150 204 575 982 1264 1234 1352 1514 1800 1842 2035 2809

GFSFLT2_con_mucape_048.txt.gz
CAPE
0 0 0 0 0 0 0 0 0 0 0 0 0 0 0 71 129 230 256 285 383 366 247 173 146 220 122 64 35 49 147 158
0 0 0 0 0 0 0 0 0 0 0 0 0 0 0 4 75 123 211 205 171 398 413 380 307 189 269 258 134 80 37 67
0 0 0 0 0 0 0 0 0 0 0 0 0 0 0 0 56 136 195 174 159 321 385 403 434 431 323 283 340 243 227 149
0 0 0 0 0 0 0 0 0 0 0 0 0 0 0 0 0 129 211 207 199 168 192 365 357 395 430 401 356 349 337 317
0 0 0 0 0 0 0 0 0 0 0 0 0 0 0 0 0 1 82 149 184 173 129 275 325 320 358 395 404 405 374 394
0 0 0 0 0 4 1 0 0 0 0 0 0 0 0 0 0 0 2 21 85 114 101 135 295 256 362 371 380 395 392 432
0 0 0 0 0 1 0 0 0 0 0 0 0 0 0 0 0 0 0 0 7 71 108 120 290 266 426 426 396 408 403 506
0 0 0 0 0 5 0 0 0 0 0 0 0 0 29 31 17 0 0 0 0 22 118 175 292 349 380 535 513 460 457 487
2 0 0 0 0 0 0 0 0 0 0 0 37 66 35 23 34 44 78 0 0 0 107 234 318 383 398 536 645 595 539 511
10 0 0 0 1 0 0 0 0 0 106 133 363 455 341 245 125 66 348 100 0 52 205 276 338 390 396 513 807 783 704 779
0 0 0 0 2 1 0 0 0 0 448 582 488 535 764 677 669 583 652 731 90 195 294 346 416 449 503 658 832 1061 1050 1092
0 0 5 7 0 0 0 2 11 181 457 443 221 268 571 801 834 742 788 992 389 392 481 519 534 562 614 719 954 1334 1390 1449
0 36 49 61 2 0 0 0 5 76 287 226 158 114 890 1355 1458 1123 925 949 1063 772 736 721 684 672 688 710 930 1128 1380 1598
0 66 53 80 30 6 0 0 5 41 129 238 204 403 1266 1220 1146 1376 1360 1084 1245 1298 1245 1132 1098 1090 1035 1000 933 951 1145 1412
0 72 51 73 60 4 0 0 10 25 108 204 262 649 867 1107 1183 1359 1676 1796 1822 1746 1544 1536 1559 1637 1762 1901 1514 1322 1379 1485
16 0 142 72 55 0 2 9 0 1 47 259 403 421 470 609 987 1307 1597 1630 1699 1756 1812 1828 1842 2049 2276 2388 2143 2123 1833 1829
0 0 40 10 43 19 31 4 13 0 24 341 300 454 367 281 469 758 945 1409 1529 1406 1441 1463 1586 1705 1744 1851 2118 2435 2486 2374
1 0 0 6 12 3 6 2 24 9 20 236 337 419 353 279 257 350 548 838 1056 1278 1209 1079 1051 1043 1444 1354 1192 1260 1544 2091
0 0 0 0 0 0 37 28 24 16 20 105 232 343 343 289 176 197 280 271 396 528 555 626 850 658 601 492 349 367 581 800